Location: Camps Bay
(33.9517°S, 18.3844°E)
Time: 16:06:26
(UTC+00:00)

STARLINK-1094 - Pass Details

Date: 18 January 2020
Orbit: 348 x 350 km, 53.0° (Epoch: 19 February)

Event Time Altitude Azimuth Distance (km) Brightness Sun altitude
Exits shadow 03:22:38 - 332° (NNW) 1,661 5.6 -6.5°
Reaches altitude 10° 03:23:30 10° 335° (NNW) 1,315 5.1 -6.3°
Maximum altitude 03:26:19 44° 49° (NE) 505 3.6 -5.8°
Drops below altitude 10° 03:29:10 10° 122° (ESE) 1,333 7.5 -5.3°
Sets 03:31:14 0° 129° (SE) 2,184 9.0 -4.9°
